Погода в Новом

Россия / Республика Саха (Якутия)     62°35′06″N   135°31′39″E
темп.,
°C
ветер,
м/с
пор.,
м/с
влажн.,
%
обл.,
%
осадки,
мм/ч
давл.,
гПа
погр.,
м
20 января, чт
чт2000:00−42ю1110044 0.0 10398
03:00−42ююв1110042 0.0 103910
06:00−42ю119934 0.0 10399
09:00−43ю1110058 0.0 10398
12:00−35вюв119694 0.0 103873
15:00−37в1199100 0.0 10389
18:00−39ююв119995 0.0 10409
21:00−40ююв119949 0.0 10409
21 января, пт
пт2100:00−41ююв1110033 0.0 10399
03:00−41ююв119953 0.0 104010
06:00−41ююв119962 0.0 104010
09:00−39ююв119972 0.0 103916
12:00−32юв119393 0.0 103880
15:00−33в1199100 0.0 10389
18:00−36ююв1110081 0.0 10389
21:00−32юв1198100 0.1 103655
22 января, сб
сб2200:00−30юв129897 0.1 103593
03:00−29юв129899 0.1 103477
06:00−27юв1298100 0.1 1033103
09:00−27вюв119999 0.2 103249
12:00−25юв1195100 0.1 1031205
15:00−24в0198100 0.2 103071
18:00−25вюв00100100 0.1 103013
21:00−26юв0010094 0.1 102915
23 января, вс
вс2300:00−28юз00100100 0.1 10299
03:00−30юз0010096 0.1 10299
06:00−32юз0010091 0.0 10299
09:00−33ююз0010091 0.1 10289
12:00−28св009891 0.0 102772
15:00−29св0010096 0.1 10269
18:00−28вюв0199100 0.1 102639
21:00−27в1199100 0.2 102560
24 января, пн
пн2400:00−28всв0010068 0.1 102412
03:00−34зюз0010093 0.1 10259
06:00−36зюз1110028 0.0 10259
09:00−38юз0010042 0.0 10269
12:00−31ссз009830 0.0 102559
15:00−33в001005 0.0 10259
18:00−37ююв1110054 0.0 10269
21:00−34юв11100100 0.0 102526